Location: Unspecified
(0.0000°N, 0.0000°E)
Time: 08:11:54
(UTC+00:00)

Vanguard 2 - Pass Details

Date: 23 October 2021
Orbit: 554 x 2936 km, 32.9° (Epoch: 06 December)

Event Time Altitude Azimuth Distance (km) Brightness Sun altitude
Rises 23:00:09 0° 246° (WSW) 6,751 12.5 -73.9°
Reaches altitude 10° 23:04:49 10° 250° (WSW) 5,766 12.0 -74.7°
Enters shadow 23:08:23 19° 254° (WSW) 5,023 11.6 -75.3°
Maximum altitude 23:21:54 54° 322° (NW) 2,985 - -77.0°
Drops below altitude 10° 23:34:34 10° 37° (NE) 4,368 - -78.0°
Sets 23:37:36 0° 43° (NE) 5,077 - -78.1°
